Flag for Belgium Weather past 2 weeks in Mons, Belgium

Now
32 °F

Passing clouds.


Feels Like: 26 °F
Forecast: 36 / 54 °F
Wind: 6 mph from Southwest

Location: Chievres

Current Time: Mar 6, 2015 at 4:22:13 AM

Latest Report: Mar 6, 2015 at 3:25 AM


Visibility: 4 mi

Pressure: 30.66 "Hg

Humidity: 100%

Dew point: 32 °F

Location of MonsLocation

Historic Weather in Mons — Graph

°F

Mons temperature yesterday

Maximum temperature yesterday: 50 °F (at 2:25 PM)
Minimum temperature yesterday: 30 °F (at 5:25 AM)
Average temperature yesterday: 39 °F

Past Weeks' High & Low Weather Summary

 TemperatureHumidityPressure
High50 °F (Feb 23, 1:25 PM)100% (Feb 19, 3:25 AM)30.72 "Hg (Feb 19, 3:25 AM)
Low30 °F (Feb 19, 4:25 AM)53% (Mar 2, 5:25 PM)29.36 "Hg (Feb 23, 1:51 PM)
Average41 °F84%29.93 "Hg
* Reported Feb 19 2:25 AM — Mar 6 2:53 AM, Mons, Weather by CustomWeather, © 2015

Note: Actual official high and low records may vary slightly from our data, if they occured in-between our weather recording intervals... More about our weather records

Advertising

Mons weather history for previous 24 hours

 ConditionsComfort  
Time TempWeatherWind HumidityBarometerVisibility
2:53 AM
Fri, Mar 6
32 °FChilly.6 mph93%30.63 "Hg4 mi
2:25 AM32 °FChilly.5 mph93%30.66 "Hg5 mi
1:25 AM32 °FChilly.5 mph93%30.66 "HgN/A
12:25 AM34 °FChilly.5 mph93%30.63 "HgN/A
11:25 PM
Thu, Mar 5
34 °FChilly.5 mph93%30.66 "HgN/A
10:25 PM37 °FChilly.3 mph87%30.69 "HgN/A
9:25 PM39 °FChilly.3 mph81%30.69 "HgN/A
8:25 PM41 °FQuite cool.1 mph76%30.69 "HgN/A
7:25 PM45 °FPassing clouds.3 mph66%30.66 "HgN/A
6:25 PM45 °FQuite cool.5 mph66%30.66 "HgN/A
5:25 PM48 °FPassing clouds.8 mph58%30.66 "HgN/A
4:25 PM48 °FPassing clouds.8 mph62%30.66 "HgN/A
3:25 PM48 °FScattered clouds.9 mph62%30.66 "HgN/A
2:25 PM50 °FBroken clouds.7 mph58%30.69 "HgN/A
1:25 PM46 °FPassing clouds.7 mph71%30.66 "HgN/A
12:25 PM46 °FBroken clouds.7 mph76%30.72 "HgN/A
11:25 AM45 °FQuite cool.8 mph81%30.72 "HgN/A
10:25 AM39 °FChilly.3 mph93%30.72 "Hg6 mi
10:03 AM39 °FChilly.3 mph87%30.72 "HgN/A
9:25 AM36 °FChilly.3 mph93%30.72 "Hg4 mi
8:49 AM34 °FChilly.5 mph93%30.72 "Hg4 mi
8:25 AM32 °FChilly.6 mph93%30.72 "Hg2 mi
8:03 AM32 °FChilly.6 mph93%30.69 "Hg4 mi
7:25 AM30 °FChilly.3 mph93%30.66 "HgN/A
6:25 AM32 °FChilly.6 mph93%30.66 "HgN/A
5:25 AM30 °FChilly.2 mph100%30.63 "HgN/A
4:25 AM32 °FChilly.5 mph93%30.63 "HgN/A
Weather by CustomWeather, © 2015

See weather overviewHow to use our weather pages